Regional Weather Roundup
Issued by NWS Cleveland, OH

Home | Current Version | Previous Version | Text Only | Print | Product List | Glossary Off
Versions: 1 2 3 4 5 6 7 8 9 10 11 12 13 14 15 16 17 18 19 20 21 22 23 24 25 26 27 28 29 30 31 32 33 34 35 36 37 38 39 40 41 42 43 44 45 46 47 48 49 50

680
ASUS41 KCLE 301402
RWRCLE
OHIO REGIONAL WEATHER ROUNDUP
NATIONAL WEATHER SERVICE CLEVELAND, OH
1000 AM EDT SAT APR 30 2016

NOTE: "FAIR" INDICATES FEW OR NO CLOUDS BELOW 12,000 FEET WITH NO
SIGNIFICANT WEATHER AND/OR OBSTRUCTIONS TO VISIBILITY.

OHZ001>008-015>018-024>027-034-035-043-044-301500-
   NORTHWEST OHIO

CITY           SKY/WX    TMP DP  RH WIND       PRES   REMARKS
DEFIANCE       MOSUNNY   50  35  56 E14       30.11F
FINDLAY        CLOUDY    49  37  63 E12G18    30.09F
TOLEDO EXPRESS CLOUDY    50  36  58 E10       30.12S
TOLEDO EXEC    CLOUDY    51  38  60 E9        30.14R
LIMA           CLOUDY    45  42  89 E10       30.08S
$$

OHZ009>014-019>023-028>033-038-089-301500-
   NORTHEAST OHIO

CITY           SKY/WX    TMP DP  RH WIND       PRES   REMARKS
CLE-HOPKINS    CLOUDY    45  39  79 SE12      30.15F
CLE-LAKEFRONT  CLOUDY    47  41  80 E10       30.12F
CUY CO. ARPT   CLOUDY    46  43  87 SE16      30.14F
LORAIN-ELYRIA  CLOUDY    46  39  76 SE13      30.13S
ASHTABULA      CLOUDY    49  43  80 E8        30.15F
AKRON-CANTON   CLOUDY    46  42  86 SE13      30.11F FOG
WOOSTER        CLOUDY    42  41  96 SE9       30.11F FOG
MANSFIELD      CLOUDY    42  40  92 SE10      30.09F FOG
YOUNGSTOWN     CLOUDY    49  44  83 E7        30.12F
$$

OHZ042-051>053-060>062-070>072-077>081-301500-
  SOUTHWEST OHIO

CITY           SKY/WX    TMP DP  RH WIND       PRES   REMARKS
CINC-COVINGTON CLOUDY    54  50  86 E10       30.01R
CINC-LUNKEN    LGT RAIN  54  51  90 NE9       30.01F
HAMILTON       CLOUDY    53  48  83 E8        30.03F
DAYTON         LGT RAIN  49  45  86 E13       30.05F
WRIGHT-PAT AFB LGT RAIN  50  46  87 E9        30.04F
DAYTON GENERAL LGT RAIN  50  45  83 E8        30.03F
WILMINGTON     CLOUDY    49  46  90 E7G17     30.03F
$$

OHZ036-037-039>041-045>050-054>059-063>069-073>076-082>088-301500-
  CENTRAL AND SOUTHEAST OHIO

CITY           SKY/WX    TMP DP  RH WIND       PRES   REMARKS
COLUMBUS       CLOUDY    50  45  83 E8        30.08F
OSU AIRPORT    CLOUDY    50  44  80 E7        30.08F
BOLTON FIELD   CLOUDY    50  45  81 E7        30.07F
RICKENBACK AFB NOT AVBL
NEWARK         CLOUDY    53  45  74 VRB5      30.08S
MARION         CLOUDY    45  42  89 SE10      30.10F FOG
LANCASTER      CLOUDY    53  47  79 NE7       30.08F
ZANESVILLE     CLOUDY    55  45  68 NE7       30.09F
NEW PHILLY     CLOUDY    46  42  86 E5        30.13F
$$




USA.gov is the U.S. government's official web portal to all federal, state and local government web resources and services.